Temp
92 92 92 90 89 89 89 86 90 91 89 90 88 88 87 88 90 92 92 90 91 89 89 87 86 87 92 89 86 86 85 85 85 85 84 84 86 88 88 89 89 89
91 92 90 92 89 88 88 90 92 92 91 89 90 91 90 91 92 91 91 91 91 92 89 90 89 87 87 88 87 85 84 85 84 88 85 85 86 88 88 88 89 89
94 94 95 95 94 89 88 91 89 90 92 91 94 92 95 93 92 91 91 90 90 92 89 88 87 87 88 87 85 83 84 82 83 88 85 85 87 86 87 89 89 89
95 95 97 97 93 91 92 91 91 91 92 93 94 96 95 97 93 92 90 89 89 89 90 90 89 89 89 88 85 83 84 83 84 84 84 85 86 87 87 87 87 88
98 96 95 92 92 90 90 94 96 96 95 94 96 93 92 90 90 93 91 91 89 90 89 88 89 89 88 86 85 82 83 85 85 83 83 83 84 85 86 86 85 86
97 93 90 88 89 89 90 96 96 95 94 96 96 96 94 94 93 92 91 91 93 92 92 91 91 90 90 88 84 82 84 85 87 83 84 83 85 88 89 88 86 85
97 94 91 89 88 89 89 94 95 95 96 96 93 93 92 92 92 90 89 90 90 89 90 87 84 85 88 85 83 83 82 82 83 82 82 84 83 84 87 87 83 83
91 91 91 87 88 91 92 94 95 94 94 91 93 90 91 92 90 91 90 89 89 89 88 88 85 84 85 83 82 82 83 85 85 82 81 81 81 80 81 84 83 81
90 89 90 88 88 88 90 92 93 91 92 91 91 90 90 90 92 92 89 87 87 86 85 86 84 84 84 83 81 81 80 82 84 84 82 82 82 81 82 82 83 81
89 89 88 88 87 87 87 91 91 90 89 88 88 89 91 90 90 90 87 85 85 84 83 82 83 83 83 82 81 80 80 80 82 82 83 82 81 82 82 81 80 80
88 87 87 87 89 89 89 88 87 88 86 86 86 87 88 86 86 87 85 83 85 85 84 82 82 82 81 81 82 82 81 81 81 80 81 81 80 80 82 81 80 80
87 86 86 86 86 86 87 88 86 86 86 86 85 84 84 85 84 85 87 87 84 85 85 82 81 81 81 80 81 81 82 81 81 80 81 80 80 81 81 81 81 80
87 86 86 85 85 86 87 86 85 86 85 84 85 84 83 83 83 84 84 85 83 83 83 82 81 81 81 80 80 80 80 80 80 80 80 80 80 80 81 81 81 82
87 87 86 85 85 85 85 86 85 85 84 84 85 83 83 83 82 83 83 83 83 82 82 81 81 80 80 80 80 80 79 79 79 79 79 79 80 80 81 80 81 81
86 86 86 85 85 85 85 84 84 84 84 84 84 83 85 84 83 84 82 82 82 81 81 81 81 81 81 81 80 79 80 79 79 79 79 78 79 79 80 80 80 81
85 84 84 84 84 84 84 84 84 84 84 83 83 83 82 82 82 82 81 81 80 80 80 81 81 81 81 80 79 80 79 79 79 78 78 78 77 78 78 79 79 80
84 84 84 84 84 84 83 83 83 83 82 82 82 82 82 81 81 80 80 80 80 80 79 80 81 81 80 75 75 75 78 78 78 78 78 77 77 77 77 78 79 79
84 84 83 83 83 82 82 82 82 82 81 81 81 81 81 81 80 80 80 80 80 79 79 80 80 79 74 73 74 73 76 78 78 78 78 77 77 77 77 78 78 78
83 82 82 82 82 82 82 82 81 81 80 80 80 81 80 79 79 79 79 79 79 78 79 79 81 77 73 72 71 71 72 76 78 78 77 77 77 77 77 77 77 77
82 82 81 81 81 81 81 80 80 79 79 79 79 79 78 79 79 78 78 78 78 78 78 79 79 78 72 72 71 70 70 72 76 77 77 77 77 77 77 77 77 76
81 81 80 80 80 80 79 79 78 78 78 78 78 78 77 77 77 77 77 78 78 78 78 78 80 74 71 70 68 67 68 71 75 76 77 76 76 77 77 77 77 77
81 80 79 79 79 78 78 77 77 77 77 78 77 77 77 77 77 77 77 77 77 77 77 76 79 72 69 68 67 67 68 73 75 75 75 75 76 76 76 77 77 77
79 78 78 77 77 77 76 76 76 76 77 77 76 76 76 76 76 76 77 76 76 77 76 76 77 73 68 66 65 65 68 73 74 75 75 75 75 76 76 77 77 77
78 78 77 77 76 76 76 76 76 76 76 77 75 75 75 75 75 75 76 76 76 76 76 75 76 75 68 65 64 64 69 73 74 74 74 74 74 75 76 76 77 75
78 77 76 76 75 75 75 75 75 75 75 76 75 75 74 75 76 75 75 76 76 76 77 76 76 74 68 65 63 63 68 72 73 73 73 73 73 74 75 75 76 76
76 76 75 75 74 74 75 74 75 75 74 74 74 74 74 74 74 74 74 74 75 75 76 76 75 76 75 66 63 63 63 70 73 72 72 72 73 73 73 74 75 75
MSLP
1007.37 1007.55 1007.75 1007.91 1008.05 1008.13 1008.25 1008.47 1008.33 1008.27 1008.23 1008.17 1008.31 1008.21 1008.21 1007.93 1007.61 1007.57 1007.55 1007.51 1007.55 1007.61 1007.53 1007.47 1007.39 1007.43 1007.37 1007.35 1007.37 1007.47 1007.67 1007.79 1007.81 1007.79 1007.95 1008.03 1008.03 1007.95 1007.89 1007.67 1007.49 1007.37
1007.11 1007.01 1007.03 1007.23 1007.47 1007.63 1007.79 1007.77 1007.85 1007.75 1007.63 1007.57 1007.41 1007.33 1007.21 1007.19 1007.15 1007.23 1007.33 1007.39 1007.35 1007.35 1007.25 1007.27 1007.27 1007.29 1007.31 1007.33 1007.31 1007.45 1007.57 1007.57 1007.71 1007.33 1007.57 1007.65 1007.61 1007.49 1007.53 1007.39 1007.27 1007.03
1006.65 1006.63 1006.65 1006.91 1007.11 1007.37 1007.37 1007.27 1007.39 1007.41 1007.37 1007.17 1007.01 1006.97 1007.01 1006.81 1006.91 1006.91 1007.05 1007.21 1007.35 1007.35 1007.31 1007.25 1007.25 1007.17 1007.15 1007.13 1007.13 1007.25 1007.35 1007.39 1007.49 1007.13 1007.17 1007.33 1007.27 1007.41 1007.27 1007.09 1006.99 1006.87
1006.09 1006.05 1005.99 1006.01 1006.11 1006.29 1006.61 1006.93 1006.93 1006.87 1006.77 1006.85 1006.73 1006.39 1006.39 1006.31 1006.43 1006.75 1006.87 1006.93 1007.09 1007.05 1006.97 1006.93 1006.97 1006.93 1006.91 1006.89 1006.95 1007.09 1007.05 1007.07 1006.99 1006.93 1007.09 1006.97 1006.99 1007.07 1007.09 1006.95 1006.87 1006.75
1005.61 1005.77 1005.73 1005.75 1005.71 1005.83 1006.01 1006.29 1006.29 1006.27 1006.31 1006.27 1006.19 1006.09 1006.15 1006.23 1006.33 1006.43 1006.61 1006.65 1006.65 1006.77 1006.67 1006.67 1006.55 1006.57 1006.49 1006.57 1006.65 1006.95 1006.95 1006.99 1006.71 1006.67 1006.85 1006.95 1006.75 1006.79 1006.77 1006.69 1006.73 1006.79
1005.23 1005.29 1005.35 1005.47 1005.57 1005.77 1005.99 1006.03 1005.99 1006.05 1006.07 1006.01 1005.91 1005.69 1005.79 1005.85 1006.11 1006.29 1006.41 1006.61 1006.57 1006.59 1006.61 1006.47 1006.47 1006.41 1006.41 1006.49 1006.59 1006.75 1006.81 1006.87 1006.69 1006.67 1006.77 1006.81 1006.61 1006.27 1006.17 1006.25 1006.41 1006.55
1004.95 1004.97 1005.09 1005.11 1005.49 1005.65 1005.85 1005.79 1005.77 1005.77 1005.69 1005.63 1005.59 1005.83 1005.81 1006.03 1006.13 1006.19 1006.23 1006.35 1006.43 1006.49 1006.53 1006.55 1006.55 1006.53 1006.33 1006.39 1006.59 1006.71 1006.65 1006.67 1006.57 1006.59 1006.71 1006.55 1006.43 1006.37 1006.11 1006.09 1006.23 1006.37
1005.15 1005.05 1005.23 1005.25 1005.49 1005.63 1005.75 1005.63 1005.63 1005.59 1005.45 1005.43 1005.67 1005.67 1005.73 1005.95 1006.03 1005.99 1006.01 1006.09 1006.21 1006.15 1006.11 1006.13 1006.17 1006.25 1006.25 1006.33 1006.57 1006.67 1006.65 1006.43 1006.43 1006.41 1006.47 1006.39 1006.23 1006.31 1006.13 1005.95 1005.99 1006.21
1005.05 1005.23 1005.31 1005.49 1005.63 1005.67 1005.71 1005.57 1005.43 1005.37 1005.21 1005.45 1005.55 1005.61 1005.59 1005.75 1005.79 1005.67 1005.71 1005.79 1005.89 1005.97 1006.03 1006.11 1006.13 1006.15 1006.09 1006.21 1006.37 1006.49 1006.59 1006.51 1006.31 1006.27 1006.27 1006.25 1006.19 1006.07 1005.91 1005.73 1005.81 1005.85
1005.19 1005.21 1005.39 1005.49 1005.65 1005.61 1005.69 1005.53 1005.37 1005.31 1005.17 1005.33 1005.43 1005.45 1005.61 1005.51 1005.49 1005.55 1005.57 1005.71 1005.83 1005.87 1005.93 1005.95 1005.93 1005.89 1005.85 1005.83 1005.95 1006.07 1006.19 1006.23 1006.11 1006.05 1005.93 1005.85 1005.85 1005.77 1005.67 1005.61 1005.67 1005.73
1005.29 1005.29 1005.47 1005.51 1005.45 1005.39 1005.47 1005.37 1005.33 1005.29 1005.21 1005.29 1005.29 1005.37 1005.33 1005.41 1005.47 1005.43 1005.59 1005.65 1005.71 1005.73 1005.73 1005.65 1005.57 1005.53 1005.61 1005.61 1005.57 1005.53 1005.65 1005.69 1005.69 1005.67 1005.63 1005.53 1005.45 1005.39 1005.33 1005.35 1005.41 1005.43
1005.23 1005.29 1005.37 1005.39 1005.41 1005.35 1005.25 1005.13 1005.09 1005.11 1005.13 1005.09 1005.09 1005.31 1005.25 1005.23 1005.35 1005.35 1005.31 1005.37 1005.33 1005.33 1005.27 1005.27 1005.23 1005.25 1005.31 1005.31 1005.27 1005.23 1005.21 1005.23 1005.19 1005.21 1005.19 1005.19 1005.09 1005.01 1004.95 1004.91 1004.99 1004.99
1005.19 1005.15 1005.09 1005.15 1005.13 1005.09 1004.95 1004.93 1004.95 1004.93 1004.95 1005.03 1004.87 1004.91 1005.05 1005.15 1005.07 1005.11 1004.95 1004.95 1004.95 1004.95 1005.03 1005.01 1005.01 1004.97 1005.03 1005.03 1005.01 1004.97 1004.99 1005.01 1004.99 1004.89 1004.83 1004.79 1004.73 1004.65 1004.53 1004.47 1004.45 1004.47
1005.07 1004.89 1004.85 1004.81 1004.73 1004.71 1004.73 1004.69 1004.69 1004.71 1004.71 1004.63 1004.59 1004.75 1004.81 1004.83 1004.85 1004.83 1004.65 1004.61 1004.61 1004.65 1004.61 1004.61 1004.65 1004.67 1004.63 1004.63 1004.61 1004.63 1004.65 1004.67 1004.67 1004.69 1004.63 1004.55 1004.43 1004.31 1004.21 1004.17 1004.13 1004.11
1004.85 1004.73 1004.61 1004.61 1004.59 1004.63 1004.65 1004.65 1004.57 1004.49 1004.41 1004.39 1004.41 1004.45 1004.37 1004.33 1004.29 1004.35 1004.47 1004.49 1004.41 1004.39 1004.39 1004.33 1004.39 1004.37 1004.27 1004.25 1004.33 1004.33 1004.27 1004.35 1004.35 1004.37 1004.37 1004.37 1004.25 1004.11 1003.97 1003.91 1003.89 1003.81
1004.81 1004.75 1004.73 1004.63 1004.65 1004.67 1004.61 1004.53 1004.45 1004.39 1004.33 1004.33 1004.31 1004.23 1004.17 1004.09 1004.09 1004.11 1004.19 1004.29 1004.35 1004.25 1004.15 1004.11 1004.07 1003.91 1003.83 1003.81 1003.85 1003.95 1004.01 1003.99 1003.99 1004.01 1004.05 1004.09 1004.11 1004.05 1003.89 1003.75 1003.65 1003.55
1004.83 1004.79 1004.59 1004.67 1004.55 1004.49 1004.45 1004.45 1004.43 1004.33 1004.29 1004.25 1004.19 1004.11 1004.07 1003.99 1003.99 1004.07 1004.05 1003.95 1003.97 1003.99 1004.01 1003.91 1003.77 1003.59 1003.51 1003.53 1003.53 1003.55 1003.61 1003.69 1003.77 1003.75 1003.67 1003.71 1003.77 1003.83 1003.83 1003.63 1003.41 1003.23
1004.81 1004.73 1004.73 1004.65 1004.53 1004.53 1004.45 1004.35 1004.29 1004.29 1004.31 1004.21 1004.13 1004.11 1003.95 1003.79 1003.89 1003.87 1003.79 1003.73 1003.65 1003.63 1003.69 1003.59 1003.43 1003.21 1003.21 1003.21 1003.23 1003.23 1003.27 1003.31 1003.31 1003.37 1003.37 1003.39 1003.37 1003.39 1003.33 1003.25 1003.17 1003.01
1004.75 1004.75 1004.69 1004.61 1004.49 1004.37 1004.27 1004.21 1004.21 1004.19 1004.15 1004.09 1004.03 1003.79 1003.71 1003.81 1003.71 1003.61 1003.57 1003.45 1003.47 1003.51 1003.43 1003.19 1003.03 1002.83 1002.85 1002.85 1002.89 1002.91 1002.93 1002.99 1002.97 1002.93 1003.01 1003.01 1002.97 1002.95 1002.95 1002.91 1002.87 1002.83
1004.65 1004.63 1004.61 1004.47 1004.29 1004.23 1004.19 1004.21 1004.23 1004.23 1004.07 1003.93 1003.83 1003.73 1003.75 1003.67 1003.55 1003.51 1003.35 1003.31 1003.23 1003.19 1003.05 1002.83 1002.69 1002.51 1002.53 1002.53 1002.59 1002.63 1002.63 1002.71 1002.71 1002.67 1002.63 1002.61 1002.61 1002.55 1002.51 1002.51 1002.47 1002.49
1004.57 1004.51 1004.51 1004.41 1004.29 1004.25 1004.25 1004.29 1004.27 1004.17 1004.03 1003.89 1003.81 1003.77 1003.71 1003.63 1003.49 1003.41 1003.19 1003.07 1002.93 1002.79 1002.75 1002.65 1002.43 1002.23 1002.25 1002.23 1002.27 1002.35 1002.35 1002.41 1002.39 1002.31 1002.25 1002.17 1002.09 1002.07 1002.05 1002.01 1001.95 1001.89
1004.51 1004.57 1004.57 1004.51 1004.47 1004.39 1004.37 1004.33 1004.23 1004.13 1004.05 1003.75 1003.67 1003.55 1003.39 1003.23 1003.13 1003.05 1003.03 1002.89 1002.67 1002.53 1002.53 1002.47 1002.13 1001.97 1001.95 1001.97 1001.95 1001.99 1002.01 1002.11 1002.07 1002.07 1002.01 1001.89 1001.79 1001.71 1001.63 1001.49 1001.39 1001.37
1004.57 1004.67 1004.71 1004.67 1004.59 1004.55 1004.47 1004.35 1004.25 1004.09 1003.91 1003.67 1003.71 1003.55 1003.45 1003.29 1003.11 1002.91 1002.69 1002.61 1002.49 1002.35 1002.31 1002.13 1001.89 1001.67 1001.65 1001.63 1001.63 1001.63 1001.77 1001.85 1001.79 1001.73 1001.65 1001.59 1001.45 1001.29 1001.17 1001.01 1000.87 1000.81
1004.65 1004.67 1004.69 1004.59 1004.53 1004.55 1004.41 1004.25 1004.05 1003.87 1003.79 1003.55 1003.63 1003.53 1003.41 1003.17 1002.91 1002.75 1002.51 1002.31 1002.21 1002.11 1001.95 1001.93 1001.67 1001.33 1001.27 1001.23 1001.25 1001.27 1001.39 1001.47 1001.41 1001.41 1001.35 1001.25 1001.09 1000.87 1000.71 1000.57 1000.41 1000.33
1004.57 1004.55 1004.59 1004.59 1004.55 1004.45 1004.29 1004.21 1004.07 1003.89 1003.61 1003.41 1003.39 1003.31 1003.25 1002.99 1002.73 1002.55 1002.31 1002.05 1001.87 1001.73 1001.55 1001.55 1001.35 1001.09 1000.93 1000.93 1000.93 1000.93 1001.03 1001.09 1001.11 1001.15 1001.15 1001.01 1000.91 1000.75 1000.45 1000.27 1000.07 999.89
1004.61 1004.63 1004.59 1004.55 1004.49 1004.31 1004.15 1004.03 1003.79 1003.65 1003.53 1003.45 1003.29 1003.17 1003.07 1002.87 1002.69 1002.47 1002.33 1002.03 1001.71 1001.53 1001.35 1001.13 1001.09 1000.89 1000.71 1000.67 1000.67 1000.69 1000.75 1000.83 1000.77 1000.95 1000.95 1000.79 1000.63 1000.51 1000.41 1000.07 999.83 999.65
Wind_Speed
6 6 9 7 5 5 4 1 4 8 7 8 8 9 9 8 6 3 2 2 3 4 5 5 5 5 7 6 5 6 6 7 7 7 7 8 9 11 12 12 11 10
8 8 6 7 7 6 6 6 8 7 4 2 2 3 4 2 2 2 3 4 3 4 3 4 4 4 4 4 5 4 4 4 6 6 6 8 8 11 12 12 12 10
12 7 8 8 6 11 10 9 7 5 6 4 5 3 4 4 6 3 1 2 4 6 5 4 5 6 6 6 7 7 8 7 8 9 8 8 8 8 9 11 10 11
9 6 7 9 8 6 10 10 9 7 7 7 8 9 6 5 2 4 4 4 4 5 5 5 5 7 7 8 6 7 6 5 5 4 5 5 6 8 10 9 10 11
9 9 7 4 1 4 5 5 6 5 4 4 6 5 4 5 5 4 4 4 3 4 5 5 6 6 5 4 4 5 6 7 7 7 7 7 6 7 9 9 8 10
6 5 7 8 5 4 4 8 8 7 7 8 6 5 3 3 2 4 4 5 8 7 8 7 6 6 5 6 5 6 6 6 7 6 7 6 6 7 9 8 8 8
6 1 4 7 6 4 4 7 6 7 6 6 3 2 3 4 4 5 4 5 6 6 8 7 6 7 7 4 3 4 4 6 7 6 8 8 8 9 10 10 7 7
4 1 0 4 5 5 7 7 8 6 6 4 5 3 3 6 6 6 6 6 8 8 6 6 4 3 4 4 4 5 7 6 8 8 8 9 7 7 8 8 8 8
3 2 1 5 5 4 6 8 8 6 4 4 3 3 4 5 7 8 5 5 5 4 4 6 6 6 5 5 6 7 8 8 10 11 10 10 10 9 7 6 8 7
3 3 3 3 5 5 6 8 7 5 4 3 3 3 7 6 7 8 6 4 4 5 5 5 6 7 8 8 8 8 8 9 10 10 11 11 10 9 9 8 8 8
4 4 4 5 7 6 8 8 6 6 5 6 6 7 7 6 8 8 8 7 8 8 8 7 6 6 6 6 6 6 7 9 10 9 10 10 10 9 9 9 9 9
5 5 6 6 6 6 6 6 5 4 4 4 4 5 5 6 7 7 10 11 9 9 8 7 7 7 8 8 9 9 10 9 10 10 10 10 10 10 10 9 9 9
5 5 5 6 6 7 7 6 7 7 6 7 6 7 7 7 7 9 8 10 9 8 9 8 9 9 8 9 9 9 9 9 9 10 10 9 9 10 10 10 10 10
5 5 5 5 5 6 7 7 7 7 8 7 7 7 7 8 9 9 8 7 8 8 9 9 9 8 8 8 8 9 9 9 9 9 9 9 9 10 10 9 10 9
4 3 4 4 4 4 5 6 7 7 6 6 6 7 7 8 7 7 8 7 7 8 8 8 9 9 8 8 7 8 8 8 9 10 10 10 10 10 9 8 7 8
4 5 5 5 6 7 6 6 6 6 7 7 8 8 8 8 8 8 8 9 10 10 9 9 9 7 9 14 12 8 8 8 8 8 8 8 8 8 9 9 9 9
4 5 5 5 5 6 6 6 7 7 7 7 7 7 7 7 8 9 9 9 9 9 9 9 8 8 13 13 13 14 10 9 9 9 9 9 9 9 9 9 9 9
4 4 5 6 6 6 7 7 7 8 8 8 9 9 9 8 9 10 9 9 8 8 8 9 9 11 13 12 12 13 11 9 9 9 8 8 8 9 8 8 9 9
5 5 6 6 6 7 7 7 8 8 8 8 9 8 9 9 9 9 9 9 9 9 10 9 10 12 13 13 13 13 14 11 9 9 9 9 9 9 9 9 8 9
6 6 6 7 6 7 7 7 8 8 8 8 8 8 9 9 10 10 10 9 9 10 10 9 10 11 13 13 12 12 13 11 8 10 10 10 10 10 9 9 9 9
6 6 7 6 6 7 7 8 9 8 8 7 8 8 8 8 9 9 9 9 9 9 9 10 9 12 12 12 11 11 12 10 7 9 9 9 9 10 10 11 11 11
6 6 7 7 7 7 7 8 8 8 9 7 8 8 8 8 8 8 9 9 9 9 9 10 10 12 12 12 12 12 12 7 7 9 9 9 10 10 10 10 11 11
6 7 7 8 8 8 8 8 8 8 8 7 9 8 9 9 9 9 8 9 10 10 10 10 10 10 12 12 12 13 9 6 7 8 9 10 10 10 10 11 11 11
7 7 8 8 8 8 9 8 8 8 8 7 8 9 9 9 9 9 9 9 10 10 10 10 9 10 13 13 13 13 10 7 8 8 10 10 10 10 10 10 12 17
7 7 8 9 9 9 9 9 9 8 8 8 8 9 10 10 10 10 9 8 8 9 12 12 9 9 12 13 13 13 10 6 7 8 10 10 9 10 10 10 10 12
7 8 8 8 9 9 9 9 8 8 8 8 9 9 9 9 10 10 11 10 9 10 9 9 9 9 9 12 11 11 10 7 7 8 9 10 10 10 10 9 9 9
Wind_Direction
200 198 199 202 185 212 246 129 240 223 213 216 221 214 218 225 223 223 238 259 282 290 283 281 280 273 268 262 240 228 227 229 229 234 248 256 261 267 268 266 262 257
221 205 183 196 178 181 192 213 218 243 244 234 296 317 270 257 231 253 243 237 252 274 289 303 306 310 308 301 297 285 258 241 241 242 243 240 246 257 262 264 267 269
215 212 203 215 202 187 200 203 217 232 240 232 243 265 276 252 234 192 308 311 283 283 284 277 271 267 265 266 266 264 269 270 268 264 257 262 269 276 285 283 280 276
208 218 227 207 206 208 182 199 203 205 218 219 224 230 215 266 351 291 248 239 242 244 252 265 268 270 263 261 264 267 258 255 261 269 261 254 260 267 268 267 270 272
213 207 219 252 233 177 193 236 249 256 278 302 293 269 248 224 220 233 239 243 249 262 262 255 250 254 260 255 240 246 260 267 261 249 250 248 239 245 258 263 262 267
210 201 214 210 191 167 186 214 226 230 231 244 264 301 311 333 291 274 283 278 280 282 278 276 280 289 298 297 302 300 294 289 293 306 300 287 276 271 270 266 271 275
262 262 175 136 142 177 188 216 250 266 269 264 258 273 335 312 296 279 274 282 276 278 281 274 266 260 262 271 276 279 282 287 289 280 274 272 267 266 266 265 265 267
271 46 55 126 153 184 208 234 244 246 242 255 276 270 274 285 278 282 275 260 258 256 262 276 279 290 291 288 279 282 286 284 277 269 268 268 260 258 258 261 260 262
222 204 219 168 185 200 224 234 241 243 258 283 287 280 269 270 276 274 270 267 278 282 282 285 284 279 276 273 270 271 274 277 277 278 275 275 275 272 267 262 260 257
218 209 224 233 204 207 223 236 249 261 270 269 261 264 268 260 257 262 256 256 276 284 272 264 261 257 255 252 253 251 251 257 264 268 268 267 269 272 274 272 269 270
215 211 224 232 240 224 230 238 242 252 257 263 259 259 261 265 268 273 276 274 272 271 267 253 249 252 252 251 251 247 250 254 256 258 261 262 263 263 262 262 263 263
215 213 219 224 232 244 251 250 252 253 264 270 268 258 248 248 258 258 262 263 259 259 270 278 273 272 271 267 263 263 262 262 259 255 256 257 257 257 255 252 254 256
236 232 219 221 225 233 238 243 247 252 259 261 255 252 251 255 254 256 254 258 258 258 263 273 276 269 268 267 264 262 262 262 260 257 256 256 257 258 258 256 253 252
242 246 243 236 234 235 237 242 246 250 251 252 251 250 252 252 254 253 255 255 258 259 262 262 263 262 259 258 257 253 252 255 259 262 263 260 260 258 258 261 261 260
251 272 272 278 278 275 275 271 267 263 257 254 252 255 256 256 258 260 263 265 268 268 267 266 268 268 263 259 259 257 253 254 255 257 259 260 261 263 263 262 264 263
255 253 259 270 266 260 263 267 266 266 267 264 262 260 259 258 256 256 260 263 266 265 263 262 261 260 257 255 254 257 258 258 259 261 265 267 267 267 266 263 261 261
266 271 258 254 266 270 267 269 268 268 267 265 264 263 263 266 266 265 264 263 263 267 266 265 264 263 261 253 249 249 251 254 253 256 258 260 262 264 265 264 263 261
271 271 270 268 266 266 267 267 270 270 269 269 268 268 266 265 265 265 266 267 267 267 267 266 263 262 261 260 254 248 244 249 254 255 257 258 258 256 260 264 265 265
264 264 266 266 265 269 272 273 272 272 274 276 275 276 278 273 271 272 271 272 270 267 267 265 268 263 260 258 254 248 244 242 252 255 256 256 257 259 260 261 261 263
272 274 276 276 279 280 283 286 288 289 293 294 294 290 284 281 278 274 272 269 267 268 268 269 267 268 264 263 256 246 244 242 243 251 254 258 258 259 261 260 256 258
278 280 288 297 303 303 300 295 292 289 287 286 286 286 287 288 289 288 284 279 275 272 273 272 277 276 270 266 260 249 245 243 245 250 254 253 253 255 256 256 256 254
304 310 306 303 303 304 304 302 301 299 300 303 299 298 294 291 286 283 281 279 275 272 271 269 269 270 269 265 260 258 250 245 242 250 253 255 254 255 255 254 254 253
323 320 319 313 307 304 300 300 301 303 304 305 298 294 291 290 287 284 285 283 282 279 274 272 270 268 268 263 255 252 253 240 244 252 255 255 256 255 256 254 253 250
318 307 300 299 300 302 306 305 305 301 299 299 296 300 298 297 296 289 283 279 276 275 273 275 272 263 258 259 256 250 240 243 251 255 256 259 261 261 260 260 257 256
313 317 317 317 313 308 307 305 303 301 300 301 298 298 296 293 290 289 288 287 285 284 286 282 281 277 270 266 262 257 250 233 247 256 263 264 269 270 268 264 263 260
326 320 314 311 309 307 306 303 303 300 298 301 299 295 295 295 296 296 292 291 289 285 283 280 281 283 279 275 272 268 251 243 254 261 266 271 272 273 271 269 267 267